DW2470 Weather Reports


Display with metric or nautical units.
time (UTC)temp
F
wind
direction
speed
MPH
gust
MPH
rain 1hr
in
rain 24hr
in
rain mn
in
humidity
%
barometer
mb
20221205203027 13 48 3.0 0.0 0.00 0.00 0.00 74 1016.3
20221205201534 13 14 3.0 0.0 0.00 0.00 0.00 72 1016.6
20221205200056 13 41 3.0 0.0 0.00 0.00 0.00 72 1016.6
20221205193118 13 343 3.0 0.0 0.00 0.00 0.00 72 1016.6
20221205191606 13 298 2.0 0.0 0.00 0.00 0.00 72 1017.0
20221205190053 13 14 4.0 0.0 0.00 0.00 0.00 72 1017.1
20221205184552 13 14 3.0 0.0 0.00 0.00 0.00 71 1017.3
20221205183021 12 14 4.0 0.0 0.00 0.00 0.00 71 1017.4
20221205181521 12 14 6.0 0.0 0.00 0.00 0.00 70 1017.6
20221205180050 13 289 4.0 0.0 0.00 0.00 0.00 69 1017.6
20221205174557 13 282 6.0 0.0 0.00 0.00 0.00 69 1017.6
20221205173049 12 350 7.0 0.0 0.00 0.00 0.00 67 1017.6
20221205171554 12 14 6.0 0.0 0.00 0.00 0.00 66 1018.0
20221205170044 12 14 6.0 0.0 0.00 0.00 0.00 64 1018.0
20221205164547 12 14 7.0 0.0 0.00 0.00 0.00 65 1018.2
20221205163038 12 14 5.0 0.0 0.00 0.00 0.00 66 1017.7
20221205161540 12 14 5.0 0.0 0.00 0.00 0.00 65 1017.5
20221205160034 12 14 7.0 0.0 0.00 0.00 0.00 64 1017.3
20221205154534 12 14 7.0 0.0 0.00 0.00 0.00 64 1017.2
20221205153027 0 0.0 0.0 0.00 0.00 0.00 1017.1
20221205151526 0 0.0 0.0 0.00 0.00 0.00 1016.9
20221205150020 0 0.0 0.0 0.00 0.00 0.00 1017.1
20221205144513 0 0.0 0.0 0.00 0.00 0.00 1017.0
20221205143008 0 0.0 0.0 0.00 0.00 0.00 1016.8
20221205141502 0 0.0 0.0 0.00 0.00 0.00 1016.3
20221205140059 0 0.0 0.0 0.00 0.00 0.00 1016.2
20221205134556 0 0.0 0.0 0.00 0.00 0.00 1016.0
20221205133105 0 0.0 0.0 0.00 0.00 0.00 1015.9
20221205131541 0 0.0 0.0 0.00 0.00 0.00 1016.2
20221205130037 0 0.0 0.0 0.00 0.00 0.00 1015.9
20221205124539 0 0.0 0.0 0.00 0.00 0.00 1015.5
20221205123031 0 0.0 0.0 0.00 0.00 0.00 1015.2
20221205121522 0 0.0 0.0 0.00 0.00 0.00 1015.2
20221205120017 0 0.0 0.0 0.00 0.00 0.00 1015.5
20221205114513 0 0.0 0.0 0.00 0.00 0.00 1015.6
20221205113008 0 0.0 0.0 0.00 0.00 0.00 1015.8
20221205111537 17 342 10.0 0.0 0.00 0.00 0.00 65 1015.7
20221205110035 17 14 8.0 0.0 0.00 0.00 0.00 67 1015.6
20221205104533 17 4 8.0 0.0 0.00 0.00 0.00 67 1015.5
20221205103041 18 14 11.0 0.0 0.00 0.00 0.00 65 1015.3
20221205101531 19 342 12.0 0.0 0.00 0.00 0.00 76 1015.5
20221205100025 19 14 10.0 0.0 0.00 0.00 0.00 79 1015.5
20221205094534 19 14 7.0 0.0 0.00 0.00 0.00 80 1015.3
20221205093023 19 300 6.0 0.0 0.00 0.00 0.00 81 1015.0
20221205091522 19 14 5.0 0.0 0.00 0.00 0.00 81 1015.0
20221205090022 19 14 6.0 0.0 0.00 0.00 0.00 81 1014.9
20221205084551 19 293 8.0 0.0 0.00 0.00 0.00 79 1014.9
20221205083052 20 294 9.0 0.0 0.00 0.00 0.00 79 1014.8
20221205081548 19 288 7.0 0.0 0.00 0.00 0.00 81 1015.0
20221205080054 19 14 8.0 0.0 0.00 0.00 0.00 80 1015.1
20221205074547 19 294 9.0 0.0 0.00 0.00 0.00 80 1015.1
20221205073047 20 291 10.0 0.0 0.00 0.00 0.00 79 1015.1
20221205071547 20 293 10.0 0.0 0.00 0.00 0.00 79 1015.0
20221205070043 20 14 9.0 0.0 0.00 0.00 0.00 79 1015.2
20221205064548 20 270 8.0 0.0 0.00 0.00 0.00 79 1015.2
20221205063044 20 14 8.0 0.0 0.00 0.00 0.00 79 1015.2
20221205061538 20 285 10.0 0.0 0.00 0.00 0.00 78 1015.2
20221205060037 20 14 10.0 0.0 0.00 0.00 0.00 79 1015.3
20221205054534 20 14 11.0 0.0 0.00 0.00 0.00 80 1015.0
20221205053048 20 279 13.0 0.0 0.00 0.00 0.00 81 1014.9
20221205051526 19 275 11.0 0.0 0.00 0.00 0.00 84 1014.6
20221205050032 19 14 10.0 0.0 0.00 0.00 0.00 85 1014.4
20221205044529 18 14 9.0 0.0 0.00 0.00 0.00 85 1014.5
20221205043020 18 14 12.0 0.0 0.00 0.00 0.00 86 1014.5
20221205041517 18 14 13.0 0.0 0.00 0.00 0.00 85 1014.6
20221205040015 17 14 13.0 0.0 0.00 0.00 0.00 87 1014.2
20221205034513 16 14 10.0 0.0 0.00 0.00 0.00 87 1014.3
20221205033011 16 14 9.0 0.0 0.00 0.00 0.00 86 1014.2
20221205031547 16 14 10.0 0.0 0.00 0.00 0.00 86 1014.3
20221205030040 16 14 11.0 0.0 0.00 0.00 0.00 86 1014.4
20221205024533 17 14 11.0 0.0 0.00 0.00 0.00 86 1014.3
20221205023035 17 14 10.0 0.0 0.00 0.00 0.00 85 1014.0
20221205021525 18 14 12.0 0.0 0.00 0.00 0.00 85 1013.8
20221205020021 18 14 11.0 0.0 0.00 0.00 0.00 84 1013.7
20221205014518 18 14 10.0 0.0 0.00 0.00 0.00 83 1013.8
20221205013050 19 14 9.0 0.0 0.00 0.00 0.00 83 1014.0
20221205011537 19 14 9.0 0.0 0.00 0.00 0.00 82 1014.0
20221205010030 19 14 11.0 0.0 0.00 0.00 0.00 82 1013.9
20221205004526 19 14 10.0 0.0 0.00 0.00 0.00 81 1014.0
20221205003021 20 275 11.0 0.0 0.00 0.00 0.00 80 1013.6
20221205001517 21 272 12.0 0.0 0.00 0.00 0.00 79 1013.5
20221205000010 21 274 15.0 0.0 0.00 0.00 0.00 78 1013.5
20221204234505 22 285 17.0 0.0 0.00 0.00 0.00 77 1013.5
20221204233002 23 277 13.0 0.0 0.00 0.00 0.00 77 1013.3
20221204231559 24 14 13.0 0.0 0.00 0.00 0.00 75 1013.3
20221204230049 25 14 14.0 0.0 0.00 0.00 0.00 74 1012.5
20221204224604 25 14 16.0 0.0 0.00 0.00 0.00 73 1012.5
20221204223041 26 14 20.0 0.0 0.00 0.00 0.00 71 1012.0
20221204221538 26 289 20.0 0.0 0.00 0.00 0.00 69 1012.2
20221204220031 27 295 22.0 0.0 0.00 0.00 0.00 68 1012.0
20221204214524 28 281 23.0 0.0 0.00 0.00 0.00 72 1011.7
20221204213020 28 290 23.0 0.0 0.00 0.00 0.00 66 1011.7
20221204211520 28 281 22.0 0.0 0.00 0.00 0.00 65 1011.7
20221204210009 29 296 22.0 0.0 0.00 0.00 0.00 64 1011.3
20221204204504 29 281 21.0 0.0 0.00 0.00 0.00 63 1011.3